Time,TemperatureF,DewpointF,PressureIn,WindDirection,WindDirectionDegrees,WindSpeedMPH,WindSpeedGustMPH,Humidity,HourlyPrecipIn,Conditions,Clouds,dailyrainin,SoftwareType,DateUTC
2013-09-12 00:00:00,78.5,73.6,30.02,ENE,68,0.0,1.0,85,0.00,,,0.00,VWS V14.01,2013-09-12 04:00:00,
2013-09-12 00:15:00,78.7,73.8,30.02,ESE,112,1.0,3.0,85,0.00,,,0.00,VWS V14.01,2013-09-12 04:15:00,
2013-09-12 00:30:00,78.6,73.7,30.01,SE,135,1.0,5.0,85,0.00,,,0.00,VWS V14.01,2013-09-12 04:30:00,
2013-09-12 00:45:00,78.4,72.4,30.00,ESE,112,2.0,5.0,82,0.00,,,0.00,VWS V14.01,2013-09-12 04:45:00,
2013-09-12 01:00:00,78.3,72.7,29.99,SSE,158,1.0,4.0,83,0.00,,,0.00,VWS V14.01,2013-09-12 05:00:00,
2013-09-12 01:15:00,78.0,73.5,30.00,SSE,158,0.0,3.0,86,0.00,,,0.00,VWS V14.01,2013-09-12 05:15:00,
2013-09-12 01:30:00,77.7,73.5,30.00,ENE,68,0.0,1.0,87,0.00,,,0.00,VWS V14.01,2013-09-12 05:30:00,
2013-09-12 01:45:00,77.4,73.6,29.99,ENE,68,0.0,1.0,88,0.00,,,0.00,VWS V14.01,2013-09-12 05:45:00,
2013-09-12 02:00:00,77.3,73.5,29.99,ENE,68,0.0,2.0,88,0.00,,,0.00,VWS V14.01,2013-09-12 06:00:00,
2013-09-12 02:15:00,77.2,73.7,29.99,ENE,68,0.0,1.0,89,0.00,,,0.00,VWS V14.01,2013-09-12 06:15:00,
2013-09-12 02:30:00,77.3,73.8,29.98,ENE,68,1.0,3.0,89,0.00,,,0.00,VWS V14.01,2013-09-12 06:30:00,
2013-09-12 02:45:00,77.2,74.0,29.98,ENE,68,0.0,1.0,90,0.00,,,0.00,VWS V14.01,2013-09-12 06:45:00,
2013-09-12 03:00:00,77.1,73.9,29.97,ENE,68,0.0,1.0,90,0.00,,,0.00,VWS V14.01,2013-09-12 07:00:00,
2013-09-12 03:15:00,76.9,73.8,29.97,ENE,68,0.0,2.0,90,0.00,,,0.00,VWS V14.01,2013-09-12 07:15:00,
2013-09-12 03:30:00,77.1,73.9,29.96,SE,135,0.0,3.0,90,0.00,,,0.00,VWS V14.01,2013-09-12 07:30:00,
2013-09-12 03:45:00,77.4,74.2,29.97,East,90,0.0,5.0,90,0.00,,,0.00,VWS V14.01,2013-09-12 07:45:00,
2013-09-12 04:00:00,77.4,74.2,29.96,ENE,68,0.0,3.0,90,0.00,,,0.00,VWS V14.01,2013-09-12 08:00:00,
2013-09-12 04:15:00,77.6,74.1,29.96,ENE,68,1.0,3.0,89,0.00,,,0.00,VWS V14.01,2013-09-12 08:15:00,
2013-09-12 04:30:00,77.5,74.0,29.96,East,90,0.0,2.0,89,0.00,,,0.00,VWS V14.01,2013-09-12 08:30:00,
2013-09-12 04:45:00,77.2,74.0,29.96,East,90,0.0,1.0,90,0.00,,,0.00,VWS V14.01,2013-09-12 08:45:00,
2013-09-12 05:00:00,77.1,73.9,29.96,East,90,0.0,1.0,90,0.00,,,0.00,VWS V14.01,2013-09-12 09:00:00,
2013-09-12 05:15:00,77.0,74.2,29.97,East,90,0.0,2.0,91,0.00,,,0.00,VWS V14.01,2013-09-12 09:15:00,
2013-09-12 05:30:00,76.9,74.1,29.96,East,90,0.0,1.0,91,0.00,,,0.00,VWS V14.01,2013-09-12 09:30:00,
2013-09-12 05:45:00,76.8,74.3,29.97,East,90,0.0,1.0,92,0.00,,,0.00,VWS V14.01,2013-09-12 09:45:00,
2013-09-12 06:00:00,76.9,74.4,29.98,East,90,0.0,0.0,92,0.00,,,0.00,VWS V14.01,2013-09-12 10:00:00,
2013-09-12 06:15:00,77.1,74.9,29.98,East,90,0.0,0.0,93,0.00,,,0.00,VWS V14.01,2013-09-12 10:15:00,
2013-09-12 06:30:00,77.3,74.8,29.98,NNW,338,1.0,4.0,92,0.00,,,0.00,VWS V14.01,2013-09-12 10:30:00,
2013-09-12 06:45:00,76.8,74.3,29.97,East,90,0.0,1.0,92,0.00,,,0.00,VWS V14.01,2013-09-12 10:45:00,
2013-09-12 06:56:00,77.3,74.8,29.98,NNW,338,1.0,4.0,92,0.00,,,0.00,VWS V14.01,2013-09-12 10:56:00,
2013-09-12 07:00:00,76.9,74.4,29.98,East,90,0.0,0.0,92,0.00,,,0.00,VWS V14.01,2013-09-12 11:00:00,
2013-09-12 07:01:00,77.5,75.0,29.98,NNW,337,1.0,1.0,92,0.00,,,0.00,VWS V14.01,2013-09-12 11:01:00,
2013-09-12 07:06:00,77.5,75.0,29.98,NNW,337,0.0,2.0,92,0.00,,,0.00,VWS V14.01,2013-09-12 11:06:00,
2013-09-12 07:11:00,77.4,74.9,29.98,NNW,337,0.0,2.0,92,0.00,,,0.00,VWS V14.01,2013-09-12 11:11:00,
2013-09-12 07:16:00,77.3,74.8,29.98,NNW,337,0.0,0.0,92,0.00,,,0.00,VWS V14.01,2013-09-12 11:16:00,
2013-09-12 07:21:00,77.2,74.7,29.98,NNW,337,0.0,0.0,92,0.00,,,0.00,VWS V14.01,2013-09-12 11:21:00,
2013-09-12 07:26:00,77.2,74.7,29.98,NNW,337,0.0,1.0,92,0.00,,,0.00,VWS V14.01,2013-09-12 11:26:00,
2013-09-12 07:31:00,77.2,74.7,29.98,NNW,341,2.0,2.0,92,0.00,,,0.00,VWS V14.01,2013-09-12 11:31:00,
2013-09-12 07:36:00,77.3,74.8,29.98,NNW,341,0.0,3.0,92,0.00,,,0.00,VWS V14.01,2013-09-12 11:36:00,
2013-09-12 07:41:00,77.4,75.2,29.98,NNW,341,0.0,3.0,93,0.00,,,0.00,VWS V14.01,2013-09-12 11:41:00,
2013-09-12 07:46:00,77.4,75.2,29.98,NNW,341,0.0,0.0,93,0.00,,,0.00,VWS V14.01,2013-09-12 11:46:00,
2013-09-12 07:51:00,77.5,75.3,29.98,NNW,341,0.0,0.0,93,0.00,,,0.00,VWS V14.01,2013-09-12 11:51:00,
2013-09-12 07:56:00,77.6,75.4,29.98,NNW,341,0.0,1.0,93,0.00,,,0.00,VWS V14.01,2013-09-12 11:56:00,
2013-09-12 08:01:00,77.8,75.6,29.99,NNW,341,0.0,2.0,93,0.00,,,0.00,VWS V14.01,2013-09-12 12:01:00,
2013-09-12 08:06:00,78.0,75.8,29.99,NNE,13,2.0,4.0,93,0.00,,,0.00,VWS V14.01,2013-09-12 12:06:00,
2013-09-12 08:11:00,78.1,75.9,29.99,NNE,13,0.0,4.0,93,0.00,,,0.00,VWS V14.01,2013-09-12 12:11:00,
2013-09-12 08:15:00,77.3,74.8,29.98,NNW,337,0.0,2.0,92,0.00,,,0.00,VWS V14.01,2013-09-12 12:15:00,
2013-09-12 08:16:00,78.2,76.0,29.99,NNE,13,0.0,0.0,93,0.00,,,0.00,VWS V14.01,2013-09-12 12:16:00,
2013-09-12 08:21:00,78.3,76.1,29.99,NNE,13,0.0,1.0,93,0.00,,,0.00,VWS V14.01,2013-09-12 12:21:00,
2013-09-12 08:26:00,78.4,76.2,30.00,NNE,13,0.0,1.0,93,0.00,,,0.00,VWS V14.01,2013-09-12 12:26:00,
2013-09-12 08:30:00,77.2,74.7,29.98,NNW,341,2.0,3.0,92,0.00,,,0.00,VWS V14.01,2013-09-12 12:30:00,
2013-09-12 08:31:00,78.5,76.3,30.00,NNE,13,0.0,0.0,93,0.00,,,0.00,VWS V14.01,2013-09-12 12:31:00,
2013-09-12 08:36:00,78.7,76.5,30.00,NNE,13,0.0,1.0,93,0.00,,,0.00,VWS V14.01,2013-09-12 12:36:00,
2013-09-12 08:41:00,78.8,76.3,30.00,NNE,13,0.0,1.0,92,0.00,,,0.00,VWS V14.01,2013-09-12 12:41:00,
2013-09-12 08:45:00,77.4,75.2,29.98,NNW,341,0.0,3.0,93,0.00,,,0.00,VWS V14.01,2013-09-12 12:45:00,
2013-09-12 08:46:00,78.9,76.4,30.00,NNE,13,0.0,0.0,92,0.00,,,0.00,VWS V14.01,2013-09-12 12:46:00,
2013-09-12 08:51:00,79.2,76.7,30.00,NNE,13,0.0,0.0,92,0.00,,,0.00,VWS V14.01,2013-09-12 12:51:00,
2013-09-12 08:56:00,79.3,76.8,30.00,NNE,13,0.0,0.0,92,0.00,,,0.00,VWS V14.01,2013-09-12 12:56:00,
2013-09-12 09:00:00,77.7,75.5,29.98,NNW,341,1.0,2.0,93,0.00,,,0.00,VWS V14.01,2013-09-12 13:00:00,
2013-09-12 09:01:00,79.4,76.6,30.00,NNE,13,0.0,0.0,91,0.00,,,0.00,VWS V14.01,2013-09-12 13:01:00,
2013-09-12 09:06:00,79.6,76.8,30.00,NNE,17,1.0,1.0,91,0.00,,,0.00,VWS V14.01,2013-09-12 13:06:00,
2013-09-12 09:11:00,79.8,76.9,30.00,NNE,17,0.0,1.0,91,0.00,,,0.00,VWS V14.01,2013-09-12 13:11:00,
2013-09-12 09:15:00,78.2,76.0,29.99,NNE,13,0.0,4.0,93,0.00,,,0.00,VWS V14.01,2013-09-12 13:15:00,
2013-09-12 09:16:00,80.1,77.2,30.00,NNE,17,0.0,0.0,91,0.00,,,0.00,VWS V14.01,2013-09-12 13:16:00,
2013-09-12 09:21:00,80.3,77.1,30.00,NNE,17,0.0,1.0,90,0.00,,,0.00,VWS V14.01,2013-09-12 13:21:00,
2013-09-12 09:26:00,80.5,77.3,30.00,NNE,17,0.0,1.0,90,0.00,,,0.00,VWS V14.01,2013-09-12 13:26:00,
2013-09-12 09:30:00,78.5,76.3,30.00,NNE,13,0.0,1.0,93,0.00,,,0.00,VWS V14.01,2013-09-12 13:30:00,
2013-09-12 09:31:00,80.7,77.5,30.00,NNE,17,0.0,0.0,90,0.00,,,0.00,VWS V14.01,2013-09-12 13:31:00,
2013-09-12 09:36:00,80.9,77.7,30.00,NNE,19,0.0,1.0,90,0.00,,,0.00,VWS V14.01,2013-09-12 13:36:00,
2013-09-12 09:41:00,81.1,77.9,30.00,NE,35,0.0,1.0,90,0.00,,,0.00,VWS V14.01,2013-09-12 13:41:00,
2013-09-12 09:45:00,78.9,76.4,30.00,NNE,13,0.0,1.0,92,0.00,,,0.00,VWS V14.01,2013-09-12 13:45:00,
2013-09-12 09:46:00,81.3,78.1,30.00,NE,35,0.0,1.0,90,0.00,,,0.00,VWS V14.01,2013-09-12 13:46:00,
2013-09-12 09:51:00,81.3,78.1,30.00,NE,49,0.0,2.0,90,0.00,,,0.00,VWS V14.01,2013-09-12 13:51:00,
2013-09-12 09:56:00,81.5,78.3,30.00,NE,49,0.0,2.0,90,0.00,,,0.00,VWS V14.01,2013-09-12 13:56:00,
2013-09-12 10:00:00,79.4,76.9,30.00,NNE,13,0.0,0.0,92,0.00,,,0.00,VWS V14.01,2013-09-12 14:00:00,
2013-09-12 10:01:00,81.5,78.3,30.00,East,89,0.0,1.0,90,0.00,,,0.00,VWS V14.01,2013-09-12 14:01:00,
2013-09-12 10:06:00,81.7,78.5,30.00,ENE,71,0.0,1.0,90,0.00,,,0.00,VWS V14.01,2013-09-12 14:06:00,
2013-09-12 10:11:00,81.8,78.2,30.00,ENE,61,0.0,2.0,89,0.00,,,0.00,VWS V14.01,2013-09-12 14:11:00,
2013-09-12 10:15:00,80.0,77.1,30.00,NNE,17,0.0,1.0,91,0.00,,,0.00,VWS V14.01,2013-09-12 14:15:00,
2013-09-12 10:16:00,82.0,78.4,30.00,NE,43,0.0,1.0,89,0.00,,,0.00,VWS V14.01,2013-09-12 14:16:00,
2013-09-12 10:21:00,82.2,78.6,30.00,ENE,67,1.0,1.0,89,0.00,,,0.00,VWS V14.01,2013-09-12 14:21:00,
2013-09-12 10:26:00,82.2,78.6,30.00,East,88,0.0,2.0,89,0.00,,,0.00,VWS V14.01,2013-09-12 14:26:00,
2013-09-12 10:30:00,80.6,77.4,30.00,NNE,17,0.0,1.0,90,0.00,,,0.00,VWS V14.01,2013-09-12 14:30:00,
2013-09-12 10:31:00,82.5,78.9,30.00,SE,139,0.0,1.0,89,0.00,,,0.00,VWS V14.01,2013-09-12 14:31:00,
2013-09-12 10:36:00,82.5,78.6,30.00,ESE,108,2.0,3.0,88,0.00,,,0.00,VWS V14.01,2013-09-12 14:36:00,
2013-09-12 10:41:00,82.6,78.3,30.00,East,101,1.0,4.0,87,0.00,,,0.00,VWS V14.01,2013-09-12 14:41:00,
2013-09-12 10:45:00,81.3,78.1,30.00,NE,35,0.0,1.0,90,0.00,,,0.00,VWS V14.01,2013-09-12 14:45:00,
2013-09-12 10:46:00,82.7,77.7,30.00,SE,133,0.0,0.0,85,0.00,,,0.00,VWS V14.01,2013-09-12 14:46:00,
2013-09-12 10:51:00,83.0,78.0,30.00,East,100,0.0,1.0,85,0.00,,,0.00,VWS V14.01,2013-09-12 14:51:00,
2013-09-12 10:56:00,83.1,77.0,30.00,ENE,70,0.0,3.0,82,0.00,,,0.00,VWS V14.01,2013-09-12 14:56:00,
2013-09-12 11:00:00,81.5,77.9,30.00,East,89,0.0,3.0,89,0.00,,,0.00,VWS V14.01,2013-09-12 15:00:00,
2013-09-12 11:01:00,83.3,76.9,30.00,ENE,72,1.0,2.0,81,0.00,,,0.00,VWS V14.01,2013-09-12 15:01:00,
2013-09-12 11:06:00,83.4,77.0,30.00,NE,56,1.0,3.0,81,0.00,,,0.00,VWS V14.01,2013-09-12 15:06:00,
2013-09-12 11:11:00,83.4,76.6,30.00,SE,125,0.0,3.0,80,0.00,,,0.00,VWS V14.01,2013-09-12 15:11:00,
2013-09-12 11:15:00,82.0,78.4,30.00,ENE,61,1.0,2.0,89,0.00,,,0.00,VWS V14.01,2013-09-12 15:15:00,
2013-09-12 11:16:00,83.5,76.7,30.00,ENE,73,1.0,1.0,80,0.00,,,0.00,VWS V14.01,2013-09-12 15:16:00,
2013-09-12 11:21:00,83.6,77.2,30.00,NE,45,0.0,3.0,81,0.00,,,0.00,VWS V14.01,2013-09-12 15:21:00,
2013-09-12 11:26:00,83.6,77.5,30.00,NNE,25,0.0,3.0,82,0.00,,,0.00,VWS V14.01,2013-09-12 15:26:00,
2013-09-12 11:30:00,82.5,78.9,30.00,ESE,112,0.0,2.0,89,0.00,,,0.00,VWS V14.01,2013-09-12 15:30:00,
2013-09-12 11:31:00,83.5,77.1,30.00,ENE,66,0.0,1.0,81,0.00,,,0.00,VWS V14.01,2013-09-12 15:31:00,
2013-09-12 11:36:00,83.6,77.2,30.00,ENE,70,0.0,2.0,81,0.00,,,0.00,VWS V14.01,2013-09-12 15:36:00,
2013-09-12 11:41:00,83.6,76.8,30.00,ESE,103,1.0,5.0,80,0.00,,,0.00,VWS V14.01,2013-09-12 15:41:00,
2013-09-12 11:45:00,82.7,77.7,30.00,SE,133,0.0,4.0,85,0.00,,,0.00,VWS V14.01,2013-09-12 15:45:00,
2013-09-12 11:46:00,83.9,77.1,30.00,ESE,103,0.0,0.0,80,0.00,,,0.00,VWS V14.01,2013-09-12 15:46:00,
2013-09-12 11:51:00,84.2,77.0,30.00,ESE,103,0.0,1.0,79,0.00,,,0.00,VWS V14.01,2013-09-12 15:51:00,
2013-09-12 11:56:00,84.5,77.3,30.00,East,92,2.0,2.0,79,0.00,,,0.00,VWS V14.01,2013-09-12 15:56:00,
2013-09-12 12:00:00,83.2,77.1,30.00,East,82,2.0,3.0,82,0.00,,,0.00,VWS V14.01,2013-09-12 16:00:00,
2013-09-12 12:01:00,84.8,77.2,30.00,ESE,111,0.0,2.0,78,0.00,,,0.00,VWS V14.01,2013-09-12 16:01:00,
2013-09-12 12:06:00,85.1,77.5,30.00,ENE,66,0.0,4.0,78,0.00,,,0.00,VWS V14.01,2013-09-12 16:06:00,
2013-09-12 12:11:00,85.3,77.7,29.99,East,101,0.0,5.0,78,0.00,,,0.00,VWS V14.01,2013-09-12 16:11:00,
2013-09-12 12:15:00,83.5,76.7,30.00,ENE,72,1.0,3.0,80,0.00,,,0.00,VWS V14.01,2013-09-12 16:15:00,
2013-09-12 12:16:00,85.4,77.4,29.99,ESE,113,0.0,1.0,77,0.00,,,0.00,VWS V14.01,2013-09-12 16:16:00,
2013-09-12 12:21:00,85.6,77.6,29.99,NE,55,1.0,2.0,77,0.00,,,0.00,VWS V14.01,2013-09-12 16:21:00,
2013-09-12 12:26:00,85.8,77.8,29.99,ENE,61,1.0,3.0,77,0.00,,,0.00,VWS V14.01,2013-09-12 16:26:00,
2013-09-12 12:30:00,83.5,77.1,30.00,ENE,66,0.0,3.0,81,0.00,,,0.00,VWS V14.01,2013-09-12 16:30:00,
2013-09-12 12:31:00,86.0,77.9,29.98,ENE,61,0.0,0.0,77,0.00,,,0.00,VWS V14.01,2013-09-12 16:31:00,
2013-09-12 12:36:00,86.1,77.2,29.98,ENE,61,0.0,2.0,75,0.00,,,0.00,VWS V14.01,2013-09-12 16:36:00,
2013-09-12 12:41:00,86.3,77.4,29.98,ENE,61,0.0,2.0,75,0.00,,,0.00,VWS V14.01,2013-09-12 16:41:00,
2013-09-12 12:45:00,83.8,77.0,30.00,ESE,103,0.0,5.0,80,0.00,,,0.00,VWS V14.01,2013-09-12 16:45:00,
2013-09-12 12:46:00,86.6,77.7,29.98,ENE,61,0.0,0.0,75,0.00,,,0.00,VWS V14.01,2013-09-12 16:46:00,
2013-09-12 12:51:00,86.7,77.0,29.98,ESE,105,0.0,2.0,73,0.00,,,0.00,VWS V14.01,2013-09-12 16:51:00,
2013-09-12 12:56:00,87.0,77.7,29.98,ESE,105,1.0,2.0,74,0.00,,,0.00,VWS V14.01,2013-09-12 16:56:00,
2013-09-12 13:00:00,84.7,77.1,30.00,ESE,116,1.0,5.0,78,0.00,,,0.00,VWS V14.01,2013-09-12 17:00:00,
2013-09-12 13:01:00,87.1,77.8,29.98,SE,143,0.0,1.0,74,0.00,,,0.00,VWS V14.01,2013-09-12 17:01:00,
2013-09-12 13:06:00,87.1,77.0,29.98,ESE,111,2.0,5.0,72,0.00,,,0.00,VWS V14.01,2013-09-12 17:06:00,
2013-09-12 13:11:00,86.9,77.2,29.97,ENE,65,0.0,5.0,73,0.00,,,0.00,VWS V14.01,2013-09-12 17:11:00,
2013-09-12 13:15:00,85.4,77.4,29.99,ESE,116,1.0,6.0,77,0.00,,,0.00,VWS V14.01,2013-09-12 17:15:00,
2013-09-12 13:16:00,86.8,77.1,29.97,ENE,72,0.0,0.0,73,0.00,,,0.00,VWS V14.01,2013-09-12 17:16:00,
2013-09-12 13:21:00,86.6,76.9,29.97,ESE,122,1.0,2.0,73,0.00,,,0.00,VWS V14.01,2013-09-12 17:21:00,
2013-09-12 13:26:00,86.5,77.2,29.97,ESE,111,0.0,3.0,74,0.00,,,0.00,VWS V14.01,2013-09-12 17:26:00,
2013-09-12 13:30:00,86.0,77.9,29.99,ENE,61,0.0,3.0,77,0.00,,,0.00,VWS V14.01,2013-09-12 17:30:00,
2013-09-12 13:31:00,86.5,77.6,29.97,ESE,111,0.0,0.0,75,0.00,,,0.00,VWS V14.01,2013-09-12 17:31:00,
2013-09-12 13:36:00,86.5,76.8,29.97,ESE,113,1.0,3.0,73,0.00,,,0.00,VWS V14.01,2013-09-12 17:36:00,
2013-09-12 13:41:00,86.3,76.2,29.97,SSE,148,5.0,5.0,72,0.00,,,0.00,VWS V14.01,2013-09-12 17:41:00,
2013-09-12 13:45:00,86.6,77.7,29.98,ENE,61,0.0,2.0,75,0.00,,,0.00,VWS V14.01,2013-09-12 17:45:00,
2013-09-12 13:46:00,85.9,75.0,29.97,SE,130,1.0,3.0,70,0.00,,,0.00,VWS V14.01,2013-09-12 17:46:00,
2013-09-12 13:50:00,85.7,73.9,29.97,ESE,103,5.0,6.0,68,0.00,,,0.00,VWS V14.01,2013-09-12 17:50:00,
2013-09-12 13:56:00,85.2,73.0,29.97,ESE,110,5.0,6.0,67,0.00,,,0.00,VWS V14.01,2013-09-12 17:56:00,
2013-09-12 14:00:00,87.1,77.8,29.98,SE,143,0.0,3.0,74,0.00,,,0.00,VWS V14.01,2013-09-12 18:00:00,
2013-09-12 14:01:00,85.0,73.3,29.97,ENE,57,0.0,1.0,68,0.00,,,0.00,VWS V14.01,2013-09-12 18:01:00,
2013-09-12 14:05:00,84.9,74.9,29.97,ENE,68,0.0,2.0,72,0.00,,,0.00,VWS V14.01,2013-09-12 18:05:00,
2013-09-12 14:10:00,84.8,75.6,29.97,ENE,68,0.0,2.0,74,0.01,,,0.01,VWS V14.01,2013-09-12 18:10:00,
2013-09-12 14:15:00,84.6,75.8,29.97,ENE,68,0.0,0.0,75,0.01,,,0.01,VWS V14.01,2013-09-12 18:15:00,
2013-09-12 14:20:00,84.6,75.4,29.97,ESE,112,0.0,3.0,74,0.01,,,0.01,VWS V14.01,2013-09-12 18:20:00,
2013-09-12 14:25:00,84.5,74.9,29.96,East,101,0.0,3.0,73,0.01,,,0.01,VWS V14.01,2013-09-12 18:25:00,
2013-09-12 14:30:00,84.6,74.2,29.96,East,100,0.0,0.0,71,0.01,,,0.01,VWS V14.01,2013-09-12 18:30:00,
2013-09-12 14:35:00,84.8,74.4,29.96,East,94,1.0,2.0,71,0.01,,,0.01,VWS V14.01,2013-09-12 18:35:00,
2013-09-12 14:40:00,85.1,74.2,29.95,East,100,0.0,2.0,70,0.01,,,0.01,VWS V14.01,2013-09-12 18:40:00,
2013-09-12 14:45:00,85.4,74.5,29.95,ESE,106,1.0,1.0,70,0.01,,,0.01,VWS V14.01,2013-09-12 18:45:00,
2013-09-12 14:50:00,85.6,74.7,29.95,ESE,102,2.0,3.0,70,0.01,,,0.01,VWS V14.01,2013-09-12 18:50:00,
2013-09-12 14:55:00,85.7,74.8,29.94,SE,130,0.0,4.0,70,0.01,,,0.01,VWS V14.01,2013-09-12 18:55:00,
2013-09-12 15:00:00,85.9,75.0,29.94,SE,126,0.0,1.0,70,0.01,,,0.01,VWS V14.01,2013-09-12 19:00:00,
2013-09-12 15:05:00,86.1,75.2,29.94,East,101,1.0,2.0,70,0.01,,,0.01,VWS V14.01,2013-09-12 19:05:00,
2013-09-12 15:10:00,86.3,74.9,29.93,East,94,0.0,3.0,69,0.01,,,0.01,VWS V14.01,2013-09-12 19:10:00,
2013-09-12 15:15:00,86.3,74.9,29.93,ENE,69,1.0,1.0,69,0.00,,,0.01,VWS V14.01,2013-09-12 19:15:00,
2013-09-12 15:20:00,86.5,75.6,29.93,SSW,198,3.0,4.0,70,0.00,,,0.01,VWS V14.01,2013-09-12 19:20:00,
2013-09-12 15:25:00,86.5,75.6,29.93,South,182,2.0,4.0,70,0.00,,,0.01,VWS V14.01,2013-09-12 19:25:00,
2013-09-12 15:30:00,86.8,76.3,29.92,ESE,121,1.0,1.0,71,0.00,,,0.01,VWS V14.01,2013-09-12 19:30:00,
2013-09-12 15:35:00,87.0,76.5,29.92,ESE,123,0.0,2.0,71,0.00,,,0.01,VWS V14.01,2013-09-12 19:35:00,
2013-09-12 15:40:00,87.3,76.8,29.92,ESE,123,0.0,3.0,71,0.00,,,0.01,VWS V14.01,2013-09-12 19:40:00,
2013-09-12 15:45:00,87.4,76.4,29.92,ENE,57,1.0,1.0,70,0.00,,,0.01,VWS V14.01,2013-09-12 19:45:00,
2013-09-12 15:50:00,87.6,76.6,29.92,East,84,0.0,1.0,70,0.00,,,0.01,VWS V14.01,2013-09-12 19:50:00,
2013-09-12 15:55:00,87.7,76.7,29.91,ESE,109,0.0,5.0,70,0.00,,,0.01,VWS V14.01,2013-09-12 19:55:00,
2013-09-12 16:00:00,88.0,77.0,29.91,ESE,107,1.0,5.0,70,0.00,,,0.01,VWS V14.01,2013-09-12 20:00:00,
2013-09-12 16:05:00,87.9,76.5,29.91,SE,136,1.0,3.0,69,0.00,,,0.01,VWS V14.01,2013-09-12 20:05:00,
2013-09-12 16:10:00,88.3,76.8,29.91,East,98,0.0,3.0,69,0.00,,,0.01,VWS V14.01,2013-09-12 20:10:00,
2013-09-12 16:15:00,88.6,77.1,29.91,East,84,1.0,3.0,69,0.00,,,0.01,VWS V14.01,2013-09-12 20:15:00,
2013-09-12 16:20:00,88.2,76.8,29.91,SE,133,0.0,5.0,69,0.00,,,0.01,VWS V14.01,2013-09-12 20:20:00,
2013-09-12 16:25:00,87.8,76.8,29.91,ENE,64,3.0,6.0,70,0.00,,,0.01,VWS V14.01,2013-09-12 20:25:00,
2013-09-12 16:30:00,87.6,77.0,29.91,East,96,1.0,6.0,71,0.00,,,0.01,VWS V14.01,2013-09-12 20:30:00,
2013-09-12 16:35:00,87.6,77.0,29.90,ENE,76,0.0,3.0,71,0.00,,,0.01,VWS V14.01,2013-09-12 20:35:00,
2013-09-12 16:40:00,87.5,76.9,29.90,East,86,6.0,8.0,71,0.00,,,0.01,VWS V14.01,2013-09-12 20:40:00,
2013-09-12 16:45:00,87.2,76.2,29.90,ENE,78,2.0,8.0,70,0.00,,,0.01,VWS V14.01,2013-09-12 20:45:00,
2013-09-12 16:50:00,87.3,76.3,29.90,East,80,1.0,5.0,70,0.00,,,0.01,VWS V14.01,2013-09-12 20:50:00,
2013-09-12 16:55:00,87.0,76.0,29.90,East,92,2.0,5.0,70,0.00,,,0.01,VWS V14.01,2013-09-12 20:55:00,
2013-09-12 17:00:00,87.0,76.0,29.89,East,97,1.0,5.0,70,0.00,,,0.01,VWS V14.01,2013-09-12 21:00:00,
2013-09-12 17:05:00,86.9,76.4,29.89,East,84,0.0,4.0,71,0.00,,,0.01,VWS V14.01,2013-09-12 21:05:00,
2013-09-12 17:10:00,86.9,76.4,29.89,East,89,0.0,4.0,71,0.00,,,0.01,VWS V14.01,2013-09-12 21:10:00,
2013-09-12 17:15:00,86.8,76.7,29.89,ENE,61,0.0,4.0,72,0.00,,,0.01,VWS V14.01,2013-09-12 21:15:00,
2013-09-12 17:20:00,87.0,76.9,29.89,East,84,0.0,5.0,72,0.00,,,0.01,VWS V14.01,2013-09-12 21:20:00,
2013-09-12 17:25:00,86.7,76.6,29.89,ESE,113,4.0,5.0,72,0.00,,,0.01,VWS V14.01,2013-09-12 21:25:00,
2013-09-12 17:30:00,86.5,76.8,29.90,ENE,68,0.0,5.0,73,0.00,,,0.01,VWS V14.01,2013-09-12 21:30:00,
2013-09-12 17:35:00,86.3,76.2,29.90,NE,38,0.0,2.0,72,0.00,,,0.01,VWS V14.01,2013-09-12 21:35:00,
2013-09-12 17:40:00,86.3,76.6,29.90,East,90,1.0,2.0,73,0.00,,,0.01,VWS V14.01,2013-09-12 21:40:00,
2013-09-12 17:45:00,86.1,76.4,29.89,East,86,3.0,5.0,73,0.00,,,0.01,VWS V14.01,2013-09-12 21:45:00,
2013-09-12 17:50:00,85.9,76.2,29.90,ESE,108,0.0,3.0,73,0.00,,,0.01,VWS V14.01,2013-09-12 21:50:00,
2013-09-12 17:55:00,85.8,76.6,29.90,ESE,117,1.0,3.0,74,0.00,,,0.01,VWS V14.01,2013-09-12 21:55:00,
2013-09-12 18:00:00,85.7,76.5,29.90,NE,53,2.0,3.0,74,0.00,,,0.01,VWS V14.01,2013-09-12 22:00:00,
2013-09-12 18:05:00,85.5,76.7,29.91,NE,40,1.0,5.0,75,0.00,,,0.01,VWS V14.01,2013-09-12 22:05:00,
2013-09-12 18:10:00,85.4,76.6,29.91,SE,142,1.0,5.0,75,0.00,,,0.01,VWS V14.01,2013-09-12 22:10:00,
2013-09-12 18:15:00,85.3,76.9,29.91,North,11,0.0,5.0,76,0.00,,,0.01,VWS V14.01,2013-09-12 22:15:00,
2013-09-12 18:20:00,85.2,76.8,29.91,NE,43,2.0,5.0,76,0.00,,,0.01,VWS V14.01,2013-09-12 22:20:00,
2013-09-12 18:25:00,85.1,76.7,29.90,ENE,67,1.0,5.0,76,0.00,,,0.01,VWS V14.01,2013-09-12 22:25:00,
2013-09-12 18:30:00,85.1,77.1,29.90,ENE,66,1.0,5.0,77,0.00,,,0.01,VWS V14.01,2013-09-12 22:30:00,
2013-09-12 18:35:00,85.0,76.6,29.90,NE,40,1.0,2.0,76,0.00,,,0.01,VWS V14.01,2013-09-12 22:35:00,
2013-09-12 18:40:00,84.8,76.8,29.90,ENE,61,3.0,3.0,77,0.00,,,0.01,VWS V14.01,2013-09-12 22:40:00,
2013-09-12 18:45:00,84.6,77.0,29.90,ENE,72,1.0,4.0,78,0.00,,,0.01,VWS V14.01,2013-09-12 22:45:00,
2013-09-12 18:50:00,84.4,76.8,29.90,ENE,72,0.0,2.0,78,0.00,,,0.01,VWS V14.01,2013-09-12 22:50:00,
2013-09-12 18:55:00,84.3,77.1,29.90,NE,48,3.0,4.0,79,0.00,,,0.01,VWS V14.01,2013-09-12 22:55:00,
2013-09-12 19:00:00,84.1,76.9,29.90,ENE,59,0.0,4.0,79,0.00,,,0.01,VWS V14.01,2013-09-12 23:00:00,
2013-09-12 19:05:00,83.9,77.1,29.90,ENE,62,1.0,4.0,80,0.00,,,0.01,VWS V14.01,2013-09-12 23:05:00,
2013-09-12 19:10:00,83.8,77.0,29.91,ENE,57,0.0,4.0,80,0.00,,,0.01,VWS V14.01,2013-09-12 23:10:00,
2013-09-12 19:15:00,83.6,76.8,29.91,ENE,58,0.0,4.0,80,0.00,,,0.01,VWS V14.01,2013-09-12 23:15:00,
2013-09-12 19:20:00,83.6,76.8,29.91,ENE,58,0.0,1.0,80,0.00,,,0.01,VWS V14.01,2013-09-12 23:20:00,
2013-09-12 19:25:00,83.5,76.7,29.91,ENE,58,0.0,2.0,80,0.00,,,0.01,VWS V14.01,2013-09-12 23:25:00,
2013-09-12 19:30:00,83.4,77.0,29.91,ENE,60,0.0,2.0,81,0.00,,,0.01,VWS V14.01,2013-09-12 23:30:00,
2013-09-12 19:35:00,83.3,76.9,29.91,ENE,60,1.0,2.0,81,0.00,,,0.01,VWS V14.01,2013-09-12 23:35:00,
2013-09-12 19:40:00,83.2,76.8,29.91,ENE,60,0.0,2.0,81,0.00,,,0.01,VWS V14.01,2013-09-12 23:40:00,
2013-09-12 19:45:00,83.2,76.8,29.92,ENE,60,0.0,2.0,81,0.00,,,0.01,VWS V14.01,2013-09-12 23:45:00,
2013-09-12 19:50:00,83.1,76.7,29.92,ENE,60,0.0,0.0,81,0.00,,,0.01,VWS V14.01,2013-09-12 23:50:00,
2013-09-12 19:55:00,83.0,76.6,29.92,ENE,60,0.0,1.0,81,0.00,,,0.01,VWS V14.01,2013-09-12 23:55:00,
2013-09-12 20:00:00,83.0,76.6,29.92,ENE,60,0.0,1.0,81,0.00,,,0.01,VWS V14.01,2013-09-13 00:00:00,
2013-09-12 20:05:00,82.9,76.5,29.92,ENE,60,0.0,0.0,81,0.00,,,0.01,VWS V14.01,2013-09-13 00:05:00,
2013-09-12 20:10:00,82.8,76.4,29.92,ENE,60,0.0,0.0,81,0.00,,,0.01,VWS V14.01,2013-09-13 00:10:00,
2013-09-12 20:15:00,82.8,76.8,29.92,ENE,60,0.0,0.0,82,0.00,,,0.01,VWS V14.01,2013-09-13 00:15:00,
2013-09-12 20:20:00,82.7,76.7,29.92,ENE,60,0.0,1.0,82,0.00,,,0.01,VWS V14.01,2013-09-13 00:20:00,
2013-09-12 20:25:00,82.6,76.6,29.91,ENE,60,0.0,1.0,82,0.00,,,0.01,VWS V14.01,2013-09-13 00:25:00,
2013-09-12 20:30:00,82.5,76.4,29.92,ENE,60,0.0,2.0,82,0.00,,,0.01,VWS V14.01,2013-09-13 00:30:00,
2013-09-12 20:35:00,82.6,76.6,29.91,ENE,60,0.0,2.0,82,0.00,,,0.01,VWS V14.01,2013-09-13 00:35:00,
2013-09-12 20:40:00,82.5,76.4,29.92,ENE,60,0.0,2.0,82,0.00,,,0.01,VWS V14.01,2013-09-13 00:40:00,
2013-09-12 20:45:00,82.5,76.4,29.92,ENE,60,0.0,2.0,82,0.00,,,0.01,VWS V14.01,2013-09-13 00:45:00,
2013-09-12 20:50:00,82.4,76.4,29.92,ENE,60,0.0,1.0,82,0.00,,,0.01,VWS V14.01,2013-09-13 00:50:00,
2013-09-12 20:55:00,82.4,76.7,29.92,ENE,60,1.0,1.0,83,0.00,,,0.01,VWS V14.01,2013-09-13 00:55:00,
2013-09-12 21:00:00,82.4,76.7,29.92,ENE,60,0.0,2.0,83,0.00,,,0.01,VWS V14.01,2013-09-13 01:00:00,
2013-09-12 21:05:00,82.3,76.6,29.92,ENE,60,0.0,1.0,83,0.00,,,0.01,VWS V14.01,2013-09-13 01:05:00,
2013-09-12 21:10:00,82.3,76.6,29.92,ENE,60,0.0,1.0,83,0.00,,,0.01,VWS V14.01,2013-09-13 01:10:00,
2013-09-12 21:15:00,82.2,76.5,29.92,ENE,60,0.0,1.0,83,0.00,,,0.01,VWS V14.01,2013-09-13 01:15:00,
2013-09-12 21:20:00,82.2,76.5,29.92,ENE,60,0.0,1.0,83,0.00,,,0.01,VWS V14.01,2013-09-13 01:20:00,
2013-09-12 21:25:00,82.1,76.4,29.92,ENE,60,0.0,1.0,83,0.00,,,0.01,VWS V14.01,2013-09-13 01:25:00,
2013-09-12 21:30:00,82.1,76.8,29.93,ENE,60,0.0,1.0,84,0.00,,,0.01,VWS V14.01,2013-09-13 01:30:00,
2013-09-12 21:35:00,82.1,76.4,29.93,ENE,60,0.0,1.0,83,0.00,,,0.01,VWS V14.01,2013-09-13 01:35:00,
2013-09-12 21:40:00,82.1,76.4,29.93,ENE,60,0.0,1.0,83,0.00,,,0.01,VWS V14.01,2013-09-13 01:40:00,
2013-09-12 21:45:00,82.0,76.3,29.93,NE,34,0.0,3.0,83,0.00,,,0.01,VWS V14.01,2013-09-13 01:45:00,
2013-09-12 21:50:00,81.9,76.2,29.93,NE,34,0.0,1.0,83,0.00,,,0.01,VWS V14.01,2013-09-13 01:50:00,
2013-09-12 21:55:00,81.7,76.0,29.93,NE,34,0.0,1.0,83,0.00,,,0.01,VWS V14.01,2013-09-13 01:55:00,
2013-09-12 22:00:00,81.5,76.2,29.93,NE,34,0.0,1.0,84,0.00,,,0.01,VWS V14.01,2013-09-13 02:00:00,
2013-09-12 22:15:00,81.0,75.7,29.93,NE,45,0.0,1.0,84,0.00,,,0.01,VWS V14.01,2013-09-13 02:15:00,
2013-09-12 22:30:00,80.6,75.7,29.93,NE,45,0.0,0.0,85,0.00,,,0.01,VWS V14.01,2013-09-13 02:30:00,
2013-09-12 22:45:00,80.6,76.0,29.92,NE,45,0.0,2.0,86,0.00,,,0.01,VWS V14.01,2013-09-13 02:45:00,
2013-09-12 23:00:00,80.4,75.8,29.92,North,0,2.0,4.0,86,0.00,,,0.01,VWS V14.01,2013-09-13 03:00:00,
2013-09-12 23:15:00,80.1,75.5,29.91,North,0,1.0,4.0,86,0.00,,,0.01,VWS V14.01,2013-09-13 03:15:00,
2013-09-12 23:30:00,80.1,75.9,29.91,North,0,1.0,3.0,87,0.00,,,0.01,VWS V14.01,2013-09-13 03:30:00,
2013-09-12 23:45:00,79.8,76.3,29.91,North,0,0.0,1.0,89,0.00,,,0.01,VWS V14.01,2013-09-13 03:45:00,